CZ-4C DEB, 43338

Orbit data source: Space-Track

CZ-4C DEB, 43338 is space debris in LEO originally from a launch on Tue, 10 Apr 2018 UTC launched from the Jiuquan Satellite Launch Center, China (JSC). Debris objects in space refer to the collection of defunct objects orbiting the Earth. Examples of debris include non-operational satellites, rocket bodies, and fragments generated from explosions, collisions, or faulty payload assembly.

Loading next visibility...
Identifier
43338, 2018-034H
Orbit
LEO
Country
Flag of CNCN / PRC
Related business
Manufacturer
Unknown
Mission
Spacecraft
Bus & Motor
Unknown
Mass
Unknown
Launch date (UTC)
2018-04-10 (8 years ago)
Launch vehicle
Unknown
Launch site
Jiuquan Satellite Launch Center, China (JSC)
Object type
Payload
Rocket body
Debris
Shape & HBR
Unknown shape, 0.1 m
Radar Cross Section
Small (<0.1 m²)

Expand to show TLE details & history
Last TLE update: 1 day ago

TLE from 1 day ago
0 CZ-4C DEB
1 43338U 18034H   25307.45970834 -.00000023  00000-0  94986-4 0  9990
2 43338  63.3963 319.7565 0254640   7.6038 352.8735 13.44706005371503
Epoch: 2025-11-03T11:01Z
TLE epoch observation values (Epoch: 2025-11-03T11:01:58.800Z)
Latitude
-0.00005°
Longitude
111.3007°
Altitude
904.881 km
Speed
7.493 km/s
True Right ascension
21h 19m 01s
True Declination
0° 00' 00"
Sunlit
Object was in daylight at epoch
Visualization orbit readout
Latitude
Unknown
Longitude
Unknown
Altitude
Unknown
Speed
Unknown
Apparent Right ascension
Unknown
Apparent Declination
Unknown
Sunlit
N/A
Visualization observer readout
Local Sidereal Time
15:42:16
Azimuth
Unknown
Elevation
Unknown
Doppler factor
Unknown
Orbital elements
Apogee altitude
1,280.814 km
Perigee altitude
900.445 km
Semi-major axis
7,468.766 km
Eccentricity
0.02546
Inclination
63.3963°
RAAN
319.7565°
Arg. of periapsis
7.6038°
True anomaly
352.49971°
Mean anomaly
352.8735°
Eccentric anomaly
352.68781°
Mean motion
3.36256 °/min
Orbital period
107.06 mins
BSTAR
0.000094986
Loading maneuver chart data...
Computing Atmospheric mass density...
Loading historical data...
Loading historical data...
Loading historical data...
Loading historical data...
Loading historical data...
Loading historical data...
Loading historical data...

Documentation

Showing up to 5 results
|